Temp_Advection
nan nan nan nan nan nan nan nan nan nan nan nan nan nan nan nan nan nan nan nan nan nan nan nan nan nan nan nan nan nan nan nan nan nan nan nan nan nan nan nan nan nan nan
nan -0 -0 -0 -0 -0 -0 -0 -0 -0 -0 -0 0 0 -0 -0 -0 0 0 -0 -0 -1 -0 0 -0 -0 -0 0 -0 0 0 0 1 1 1 1 0 0 0 0 0 0 nan
nan -0 -0 -0 -0 -0 -0 -0 -0 -0 -0 -0 0 0 0 0 0 -0 -0 0 -0 -1 -0 -0 -0 -0 -0 -0 -0 -0 0 1 1 1 0 0 -0 0 0 0 -0 0 nan
nan -0 -0 -0 -0 -0 -0 -0 0 0 -0 -0 -0 -0 -0 -0 -1 -0 -0 -0 -0 -0 -0 -0 -1 -0 -0 -0 -0 -0 0 -0 0 0 0 -0 -0 0 0 0 0 1 nan
nan -0 -0 -0 -0 -0 0 -0 -0 0 -0 0 -0 -0 -0 -1 -0 -0 0 0 -0 0 0 -0 -0 -0 0 -0 -0 0 1 0 1 1 1 0 0 0 0 0 0 1 nan
nan 0 0 0 -0 0 0 -0 -0 -0 0 0 0 0 -0 -0 0 0 0 -0 -0 0 -0 -0 -0 -0 0 -0 -0 0 0 1 1 2 1 1 1 1 0 0 1 1 nan
nan 0 -0 0 0 0 0 -0 -0 -0 0 0 0 -0 -0 0 0 -0 -0 -0 -0 -0 -0 -0 -1 -0 -0 -0 -0 -0 -0 -0 0 1 0 0 1 1 1 1 1 1 nan
nan 0 -0 -0 0 0 -0 -0 -0 -0 -0 -0 -0 -0 -0 -0 -0 -0 -0 -0 -0 -0 -0 -0 -1 -1 -1 -1 -0 -0 -0 -0 -0 -0 -0 -0 -0 0 0 0 0 0 nan
nan 0 -0 0 0 0 0 -0 -0 -0 -0 -0 -0 -0 -0 -0 -0 -0 -0 -0 -0 -1 -1 -1 -1 -0 -0 -0 -0 -0 -0 -0 -0 0 0 0 0 0 0 0 0 -0 nan
nan 1 0 0 0 0 0 0 0 -0 -0 -0 -0 -0 -0 -0 -0 -0 -0 -0 -1 -1 -0 -0 -0 -0 -0 -0 -0 -0 -0 -0 -0 -0 -0 -0 0 0 0 0 0 0 nan
nan 1 1 0 0 0 0 0 0 0 0 -0 -0 -0 -0 -0 -0 -0 -0 -0 -0 -0 -0 -0 -0 -1 -0 -1 -0 -1 -1 -0 -0 -0 -0 -0 -0 -0 -0 -0 -0 -0 nan
nan 1 1 1 0 0 0 0 0 0 -0 -0 -0 -0 -0 -0 -0 -0 -0 -0 -0 -0 -0 -0 -0 -0 -1 -0 -1 -0 -1 -1 -1 -0 -0 -0 -0 -0 -0 -0 -0 -0 nan
nan 1 1 1 1 1 0 0 0 0 0 -0 -0 -0 -0 -0 -0 -0 -0 -0 -0 -0 -0 -0 -0 -0 -0 -0 -0 -0 -0 -0 -1 -0 -1 -0 -0 -1 -0 -0 -0 0 nan
nan 1 1 1 1 1 0 0 0 0 0 0 -0 -0 -0 -0 -0 -0 -0 -0 -0 -0 -0 -0 -0 -0 -0 -0 -0 -0 -0 -0 -0 -0 -0 -0 -0 -1 -1 -0 -0 -0 nan
nan 1 1 1 1 1 1 1 0 0 0 -0 -0 -0 -0 -0 -0 -0 -0 -0 -0 -0 -0 -0 -0 -0 -0 -0 -0 -0 -0 -0 -0 -0 -0 -0 -0 -1 -1 -1 -1 -1 nan
nan 1 1 1 1 1 1 0 0 0 0 0 -0 -0 -1 -0 -0 -0 -0 -0 -0 -0 -0 -0 -0 -0 -0 -0 -0 -0 -0 -0 -0 -0 -0 -0 -0 -0 -0 -0 -0 -1 nan
nan 1 1 1 1 1 1 0 0 0 -0 -0 0 -0 -0 -1 -0 -0 -0 -1 -1 -1 -0 -0 -0 -0 -0 -0 -0 -1 -1 -0 -0 -0 -0 -0 0 0 -0 0 0 -0 nan
nan 1 1 2 2 1 0 0 0 0 0 0 0 -0 -0 -0 -0 -0 -0 -0 -0 -1 -1 -1 -1 -1 -0 -0 -0 -1 -1 -0 -0 -0 -0 -1 -1 -0 -0 -0 -0 -0 nan
nan 1 1 1 1 0 0 0 0 0 -0 -0 -0 -0 -0 -0 -0 -0 -0 -0 -0 -0 -0 -0 -1 -1 -1 -1 -0 -1 -1 -1 -0 -0 -0 -0 -1 -1 -0 -0 -0 -1 nan
nan 1 1 1 0 0 0 0 0 0 0 -0 -0 -0 -0 -0 -0 -0 -0 -0 -0 -1 -1 -1 -0 -1 -1 -0 -0 -0 -0 -1 -1 -1 -0 -0 -1 -1 -0 -0 0 -0 nan
nan 0 0 0 0 0 0 0 0 -0 -0 -0 -0 -0 -0 -0 -0 -0 -0 -0 -0 -0 -0 -1 -1 -1 -1 -1 -0 -0 0 0 -0 -0 -0 -0 -0 -1 -0 -0 -0 -0 nan
nan 0 0 0 0 -0 -0 0 -0 -0 -0 -0 -0 -0 -0 -0 -0 -0 -0 0 -0 -1 -0 -0 -0 -0 -0 -0 -1 -1 -0 -0 -0 0 -0 -0 -0 -0 -0 -0 -0 -1 nan
nan 0 0 -0 -0 -0 -0 -0 -0 -0 -0 -0 -0 -0 -0 -0 -0 -0 -0 -0 0 -0 -0 -0 -0 -0 -0 -0 -0 -0 -0 -0 -0 -0 -0 -0 -0 -0 -0 -0 -1 -1 nan
nan 0 0 -0 -0 -0 -0 -0 -0 -0 -0 -0 -0 -0 -0 -0 -0 -0 -0 -0 -0 -0 -0 0 0 -0 -0 -0 -0 -0 -0 -0 -0 -0 -0 -0 -0 -0 -0 -0 -0 -0 nan
nan -0 -0 -0 -0 -0 -0 -0 -0 -0 -0 -0 -0 -0 -0 0 -0 0 0 0 0 -0 -0 0 0 0 -0 -0 -0 -0 -0 -0 -0 -0 0 -0 -0 -0 -0 -0 -0 -0 nan
nan nan nan nan nan nan nan nan nan nan nan nan nan nan nan nan nan nan nan nan nan nan nan nan nan nan nan nan nan nan nan nan nan nan nan nan nan nan nan nan nan nan nan
Wind_Speed
7 10 12 15 19 19 26 28 23 18 11 2 2 5 7 7 7 9 12 14 15 17 18 24 23 23 26 32 35 38 42 40 38 39 35 33 34 36 33 31 30 29 27
4 7 8 10 17 19 20 27 26 22 15 5 0 4 5 9 9 14 16 16 21 20 21 24 25 23 25 32 38 40 43 41 42 41 32 24 33 36 34 32 33 31 29
2 2 4 7 10 15 18 21 26 26 22 10 4 3 7 10 11 11 14 13 15 18 18 20 22 26 27 30 31 35 40 46 43 40 26 13 15 26 36 37 36 35 33
4 1 2 5 6 8 13 15 18 22 21 20 15 15 9 9 11 9 5 4 4 10 13 15 18 21 23 25 29 29 28 42 42 40 39 27 13 16 14 37 40 38 37
6 3 2 4 6 8 9 12 13 15 19 19 16 16 19 22 20 17 15 15 12 8 5 1 7 9 14 7 17 33 31 23 39 40 37 39 31 22 14 15 28 38 38
7 5 3 2 4 6 8 9 12 12 13 14 17 17 17 16 9 14 16 16 17 16 15 15 12 12 8 10 10 5 4 19 23 38 31 37 34 30 25 13 23 25 27
10 9 6 4 2 2 4 6 8 10 12 12 13 14 14 14 13 12 10 13 17 18 15 15 15 14 9 8 9 8 6 9 10 10 8 6 13 14 24 32 24 20 22
13 14 11 8 5 3 2 3 5 8 9 11 13 14 13 14 14 14 15 15 13 12 12 11 14 13 13 12 9 7 6 8 8 5 1 5 5 2 3 3 8 7 13
16 15 14 11 9 6 4 1 2 4 6 8 9 10 12 12 14 15 14 15 15 15 15 15 15 13 14 14 15 14 11 6 3 2 2 2 4 6 5 4 7 5 5
17 17 16 13 10 9 7 5 2 1 3 5 6 8 9 11 12 12 13 14 15 15 14 13 13 13 13 12 11 9 9 9 9 6 4 4 8 9 9 10 10 11 15
20 19 16 15 13 12 9 7 5 2 1 2 4 6 8 9 11 11 12 13 13 13 13 14 15 14 14 13 12 12 11 10 9 9 6 6 6 7 9 10 11 13 14
20 20 17 18 15 12 10 9 7 3 1 3 4 5 8 9 11 12 11 11 12 14 15 14 13 14 14 14 13 12 12 11 11 10 10 9 10 8 9 9 8 9 12
19 18 19 18 14 12 11 10 8 5 4 5 3 4 6 9 11 11 12 13 12 12 12 14 15 14 13 13 14 14 14 13 11 11 11 11 11 12 10 10 11 11 11
18 20 19 16 13 14 12 10 8 5 8 8 9 8 7 7 8 11 12 14 14 14 14 13 14 14 14 14 14 14 14 14 13 13 13 13 12 13 13 12 13 13 14
13 19 18 15 16 14 12 10 8 10 3 5 4 5 6 8 8 9 11 12 14 15 15 14 14 13 14 15 17 16 15 16 16 16 15 15 15 15 13 12 14 14 15
8 15 16 16 17 15 13 15 13 8 7 4 4 6 8 9 10 10 11 11 12 13 15 15 15 16 15 15 15 17 18 18 18 17 17 17 15 12 13 12 11 12 15
7 12 15 16 17 16 16 13 8 7 8 8 7 6 9 11 12 13 13 14 14 15 15 16 17 18 18 18 19 18 18 18 17 17 17 17 17 17 17 16 15 15 12
5 8 14 18 19 17 14 13 11 9 7 5 6 7 10 12 13 13 14 15 17 17 18 19 18 19 19 20 20 22 22 20 17 14 15 20 20 18 19 21 22 23 21
3 7 11 16 14 13 11 6 6 7 6 5 6 9 12 13 14 15 15 16 17 17 18 19 20 21 21 20 20 20 22 21 20 15 14 17 18 18 17 19 22 24 23
7 9 10 10 8 6 4 5 6 5 4 7 10 13 14 15 15 16 17 17 17 19 19 19 20 20 20 19 16 15 18 21 20 17 16 20 18 17 17 19 21 25 27
5 6 5 4 4 3 3 3 3 4 8 11 13 14 14 15 17 18 18 18 18 18 19 20 20 19 17 16 14 14 17 20 20 20 22 22 20 18 19 21 24 26 27
1 2 3 2 2 3 3 3 4 9 12 14 14 15 15 17 18 19 19 18 19 19 19 19 19 18 16 13 14 15 16 17 20 22 21 22 21 19 22 22 24 25 25
2 1 2 2 4 4 6 7 9 12 13 14 15 16 17 17 16 17 17 17 16 17 18 18 19 20 19 18 16 16 15 16 18 22 23 23 23 24 25 27 24 22 20
2 1 2 3 5 8 9 10 12 14 14 15 15 16 15 13 16 16 14 15 17 18 18 21 24 26 25 24 21 18 21 24 25 25 26 25 25 28 31 25 23 26 28
3 4 5 6 8 10 11 12 13 14 15 15 15 14 14 15 14 14 16 16 17 17 22 24 26 27 28 25 22 24 25 26 27 27 30 31 31 31 30 25 29 31 25
5 6 7 9 10 12 12 13 13 14 15 14 14 14 15 16 16 17 19 15 16 15 16 18 20 23 23 24 24 25 26 26 26 29 30 29 31 27 26 28 32 28 24
Wind_Direction
328 348 2 19 20 24 24 20 17 9 5 14 171 121 196 218 231 250 255 257 256 256 261 249 262 257 252 242 234 228 223 222 218 213 218 225 223 224 226 222 223 224 227
305 340 6 17 26 27 31 34 31 28 23 33 188 209 248 261 270 265 264 270 270 268 267 264 258 258 258 255 245 233 217 229 227 213 216 215 217 223 224 225 225 225 232
235 344 16 23 35 34 38 39 43 41 40 43 94 172 243 259 262 279 285 286 288 283 277 278 271 262 264 271 264 249 218 224 222 218 207 199 218 223 231 224 225 230 232
236 263 31 37 38 41 37 40 52 55 49 51 50 51 48 53 52 47 21 306 303 287 281 281 271 275 268 259 251 246 243 246 228 216 216 215 210 211 211 231 230 232 233
240 268 328 9 24 38 58 50 50 59 60 60 54 53 51 54 59 61 66 70 68 68 59 294 270 262 263 273 249 247 250 221 212 221 219 221 219 216 205 207 222 231 235
233 244 272 327 5 23 46 51 55 57 61 64 69 69 67 62 47 36 29 29 32 48 48 42 59 64 84 71 57 121 187 217 203 216 225 228 224 221 224 206 212 219 226
231 244 243 255 296 359 29 42 47 55 56 60 65 64 68 68 65 60 50 28 24 26 4 8 22 15 39 31 31 28 14 50 83 133 136 131 207 225 241 243 224 210 209
226 238 239 243 250 267 315 38 49 56 55 55 57 56 53 46 50 50 41 35 36 20 20 8 4 348 1 8 16 18 11 18 3 1 3 350 8 262 185 144 203 207 221
237 240 242 237 239 243 257 305 24 55 58 52 52 48 48 46 43 38 34 38 33 27 19 12 10 5 359 351 352 3 359 2 29 76 148 186 226 246 250 236 263 271 273
237 243 247 243 238 235 234 228 232 349 53 62 51 47 41 39 37 32 30 30 28 22 19 13 9 7 10 5 355 349 12 346 337 318 292 282 245 247 247 243 242 239 245
239 240 242 238 238 234 233 231 230 212 278 40 42 36 35 33 28 26 23 18 16 16 11 7 3 3 1 2 1 357 355 0 0 348 345 326 315 300 289 278 271 262 255
237 235 236 233 234 230 226 226 223 219 333 332 1 28 23 18 20 14 14 14 11 3 2 4 1 358 357 355 354 353 356 353 353 341 338 333 324 313 298 299 288 278 274
223 220 214 224 231 228 227 225 219 215 251 302 332 352 328 327 350 352 354 357 359 0 356 351 352 354 353 351 352 353 351 350 347 342 338 330 321 312 311 305 294 287 281
224 211 208 218 226 226 231 226 218 214 253 261 292 327 327 336 336 335 340 343 346 348 348 348 346 345 345 343 343 343 343 340 339 337 333 327 322 317 314 305 297 293 290
220 211 212 211 207 214 225 222 221 256 251 271 296 299 326 330 327 329 332 335 338 339 340 339 338 337 335 335 335 335 332 330 327 325 322 318 315 314 314 304 303 299 294
263 221 215 207 209 220 222 227 251 238 240 260 294 300 315 319 325 326 326 326 327 329 331 333 332 330 330 327 324 322 323 323 319 315 314 313 313 307 296 303 298 305 308
295 222 208 204 204 203 217 248 232 222 235 253 282 314 323 320 324 325 325 326 325 324 323 323 324 324 324 325 322 319 315 313 310 305 303 305 305 304 303 303 301 296 295
292 221 214 209 208 221 233 234 240 249 260 268 296 322 321 316 317 318 321 324 323 323 322 321 318 315 316 316 315 314 313 313 312 308 308 307 306 307 309 309 303 299 295
206 195 208 213 225 234 235 234 252 266 281 295 320 323 310 312 314 316 316 316 313 312 311 312 312 311 311 311 310 310 308 308 310 307 301 299 301 307 307 301 298 302 298
228 204 207 224 238 217 223 242 263 274 302 317 320 309 311 313 313 313 314 313 312 311 310 310 309 309 310 311 313 310 308 310 310 303 285 287 301 302 297 295 294 295 298
216 221 227 209 223 239 245 253 277 309 319 320 309 312 312 311 311 311 311 311 308 306 307 310 313 316 321 317 314 310 306 307 313 308 304 297 302 295 290 288 288 290 296
161 185 203 221 252 270 284 313 336 316 311 307 312 312 310 310 310 310 313 314 312 313 316 316 316 316 318 315 307 310 305 305 302 304 302 305 305 297 296 296 295 293 292
201 222 250 281 295 309 338 336 309 302 307 309 310 310 310 312 312 316 317 317 319 316 314 315 319 322 323 321 318 310 306 302 299 299 301 298 296 294 294 298 301 291 288
238 268 288 308 321 327 322 309 309 309 311 313 315 316 319 324 319 318 319 320 318 320 326 328 324 322 321 321 322 323 321 315 309 307 306 303 298 296 300 298 284 290 294
298 310 316 328 315 311 309 311 312 315 318 319 319 320 321 319 322 322 318 318 319 325 321 317 316 316 316 319 316 309 307 306 306 304 301 301 302 304 306 294 295 302 296
307 323 313 309 310 311 313 315 316 320 318 319 320 322 320 322 319 318 322 326 323 314 309 307 307 308 307 307 306 305 304 303 304 301 301 303 303 305 297 295 300 299 293
Height
1528 1524 1523 1520 1517 1513 1508 1501 1496 1492 1490 1489 1490 1491 1491 1491 1492 1493 1494 1495 1496 1497 1497 1497 1498 1499 1500 1502 1502 1504 1505 1508 1512 1516 1516 1518 1521 1522 1524 1527 1529 1531 1534
1526 1524 1522 1520 1517 1513 1510 1505 1500 1495 1492 1491 1490 1491 1492 1491 1491 1492 1492 1492 1492 1493 1493 1494 1494 1494 1495 1495 1495 1494 1494 1500 1504 1504 1509 1511 1514 1515 1517 1521 1524 1526 1527
1524 1523 1522 1521 1519 1516 1512 1508 1505 1500 1496 1493 1493 1492 1491 1490 1490 1491 1491 1490 1490 1488 1489 1489 1489 1489 1489 1490 1491 1489 1481 1488 1495 1497 1500 1502 1503 1508 1510 1513 1517 1520 1522
1524 1523 1522 1520 1519 1517 1516 1513 1508 1504 1500 1497 1494 1492 1490 1489 1489 1490 1490 1489 1489 1489 1489 1486 1485 1484 1484 1484 1484 1480 1481 1487 1487 1488 1488 1494 1497 1501 1504 1507 1510 1513 1514
1524 1524 1523 1522 1520 1518 1515 1513 1510 1506 1503 1500 1498 1495 1494 1494 1494 1493 1492 1490 1490 1488 1485 1483 1483 1482 1482 1481 1479 1479 1479 1471 1472 1481 1483 1488 1491 1496 1497 1498 1502 1506 1507
1522 1522 1522 1521 1520 1519 1516 1514 1510 1509 1506 1503 1500 1497 1496 1495 1496 1495 1493 1492 1490 1488 1486 1485 1483 1481 1479 1480 1480 1476 1476 1472 1471 1471 1479 1481 1483 1486 1489 1492 1497 1498 1500
1522 1521 1520 1520 1520 1518 1516 1514 1512 1509 1508 1506 1503 1501 1498 1497 1497 1495 1495 1493 1492 1487 1487 1486 1484 1484 1481 1481 1481 1478 1479 1470 1467 1470 1472 1474 1477 1478 1481 1489 1491 1491 1493
1517 1518 1518 1518 1518 1517 1516 1514 1512 1510 1509 1507 1505 1503 1501 1499 1497 1496 1495 1494 1491 1491 1489 1488 1487 1487 1482 1481 1480 1475 1477 1474 1469 1471 1475 1477 1476 1480 1482 1483 1485 1486 1488
1515 1515 1515 1516 1516 1516 1516 1515 1513 1511 1509 1508 1506 1505 1504 1502 1500 1498 1497 1495 1493 1492 1490 1489 1488 1485 1483 1483 1480 1477 1475 1474 1474 1473 1476 1476 1477 1481 1479 1482 1485 1483 1486
1513 1513 1514 1515 1515 1515 1514 1514 1513 1512 1510 1507 1507 1505 1505 1504 1502 1500 1498 1496 1494 1493 1493 1492 1490 1486 1483 1481 1481 1482 1479 1478 1475 1473 1472 1473 1476 1478 1478 1480 1481 1482 1485
1509 1510 1510 1510 1510 1512 1512 1512 1511 1511 1510 1508 1506 1505 1504 1504 1503 1501 1499 1497 1496 1495 1493 1491 1489 1486 1485 1484 1482 1482 1479 1476 1474 1476 1475 1476 1476 1474 1476 1478 1477 1479 1479
1503 1504 1505 1505 1506 1508 1509 1508 1509 1509 1509 1508 1506 1504 1504 1503 1502 1501 1500 1498 1495 1493 1491 1491 1489 1487 1485 1485 1483 1481 1479 1478 1474 1477 1475 1474 1475 1473 1475 1474 1475 1476 1477
1498 1498 1500 1502 1504 1505 1506 1507 1507 1506 1507 1508 1506 1504 1503 1501 1501 1500 1499 1497 1495 1494 1492 1489 1487 1486 1485 1484 1482 1480 1479 1478 1477 1475 1474 1475 1474 1475 1473 1472 1473 1473 1472
1496 1497 1498 1500 1502 1503 1504 1505 1505 1504 1504 1505 1504 1503 1502 1501 1499 1498 1496 1494 1493 1492 1490 1489 1487 1486 1484 1483 1481 1479 1477 1477 1475 1473 1473 1473 1471 1471 1470 1469 1471 1467 1468
1497 1497 1497 1498 1500 1502 1503 1504 1503 1503 1503 1504 1504 1503 1501 1500 1499 1497 1495 1493 1491 1489 1488 1487 1486 1484 1483 1480 1477 1476 1476 1474 1473 1472 1471 1470 1469 1468 1467 1466 1466 1464 1463
1496 1495 1496 1498 1497 1498 1499 1499 1500 1500 1500 1501 1501 1501 1500 1499 1497 1495 1493 1492 1490 1488 1486 1484 1483 1481 1479 1478 1477 1475 1472 1471 1471 1469 1467 1466 1467 1466 1464 1464 1464 1461 1459
1494 1493 1494 1496 1496 1495 1496 1498 1497 1497 1497 1497 1498 1497 1498 1497 1495 1493 1491 1489 1488 1486 1484 1482 1480 1478 1477 1475 1473 1471 1469 1469 1467 1466 1465 1464 1464 1462 1460 1457 1456 1455 1454
1495 1492 1490 1491 1490 1493 1494 1495 1495 1495 1495 1494 1494 1494 1495 1494 1493 1491 1489 1487 1485 1483 1480 1479 1477 1475 1474 1472 1470 1468 1465 1463 1462 1461 1460 1458 1456 1455 1452 1449 1449 1449 1449
1493 1492 1491 1490 1491 1491 1492 1494 1495 1495 1494 1493 1492 1492 1492 1491 1490 1488 1486 1484 1482 1480 1478 1476 1474 1472 1470 1467 1465 1464 1461 1459 1457 1457 1457 1455 1453 1452 1451 1451 1449 1445 1442
1494 1491 1490 1490 1492 1492 1491 1492 1493 1492 1492 1491 1491 1491 1489 1488 1486 1485 1482 1480 1478 1476 1474 1472 1470 1468 1466 1463 1461 1462 1460 1457 1454 1454 1453 1451 1450 1449 1448 1444 1441 1439 1440
1492 1491 1491 1492 1493 1492 1492 1491 1491 1490 1490 1489 1489 1488 1486 1484 1483 1481 1478 1476 1474 1472 1470 1467 1465 1463 1461 1459 1459 1459 1457 1454 1451 1450 1449 1447 1445 1444 1442 1440 1438 1436 1435
1493 1493 1492 1492 1493 1492 1491 1490 1489 1488 1488 1487 1486 1484 1482 1480 1479 1476 1474 1471 1469 1466 1464 1462 1461 1459 1458 1456 1455 1454 1453 1451 1448 1446 1444 1443 1440 1439 1437 1435 1432 1431 1429
1493 1493 1493 1491 1491 1491 1489 1488 1488 1486 1485 1484 1482 1480 1478 1476 1474 1472 1469 1467 1465 1463 1461 1459 1457 1455 1454 1451 1450 1449 1447 1446 1444 1442 1440 1438 1435 1433 1430 1427 1426 1424 1419
1493 1492 1492 1490 1490 1489 1488 1487 1485 1483 1481 1480 1478 1476 1474 1472 1470 1469 1467 1464 1462 1460 1458 1455 1453 1450 1448 1446 1445 1443 1441 1439 1437 1435 1432 1430 1428 1425 1423 1420 1418 1416 1415
1493 1491 1491 1489 1488 1487 1486 1484 1482 1480 1478 1476 1475 1473 1470 1469 1467 1465 1464 1461 1459 1458 1455 1453 1450 1446 1443 1441 1441 1440 1437 1435 1432 1429 1425 1422 1419 1417 1414 1412 1411 1409 1408
1492 1490 1489 1487 1485 1484 1483 1481 1478 1477 1475 1473 1471 1469 1467 1465 1463 1461 1458 1458 1455 1454 1453 1451 1448 1444 1441 1439 1437 1434 1431 1428 1426 1422 1419 1416 1413 1411 1409 1407 1404 1403 1402